Location: North Evanston
(42.0634°N, 87.6976°W)
Time: 01:50:06
(UTC+00:00)

SR - All Passes

Search period start: 12 May 2026 00:00
Search period end: 22 May 2026 00:00
Orbit: 568 x 852 km, 66.7° (Epoch: 11 May)

Date Brightness Start Highest point End Pass type
(mag) Time Alt. Az. Time Alt. Az. Time Alt. Az.
12 May - 12:19:41 10° SE 12:22:43 17° ESE 12:25:53 10° ENE daylight
12 May - 13:59:05 10° SW 14:03:46 59° NW 14:08:55 10° NNE daylight
12 May - 15:44:41 10° WNW 15:46:42 12° NNW 15:48:46 10° N daylight
12 May - 20:56:05 10° N 21:00:23 21° NE 21:04:44 10° E daylight
12 May - 22:36:59 10° NNW 22:42:44 79° WSW 22:48:28 10° SSE daylight
13 May - 00:21:46 10° W 00:23:32 11° WSW 00:25:18 10° WSW daylight
13 May - 13:04:00 10° SSW 13:08:39 62° ESE 13:13:45 10° NE daylight
13 May - 14:47:06 10° W 14:50:51 21° NW 14:54:50 10° N daylight
13 May - 20:02:06 10° N 20:04:31 13° NE 20:06:58 10° ENE daylight
13 May - 21:41:54 10° NNW 21:47:31 53° NE 21:53:09 10° SE daylight
13 May - 23:24:16 10° NW 23:28:55 26° WSW 23:33:34 10° SSW daylight
14 May - 12:09:55 10° SSE 12:13:50 26° ESE 12:18:02 10° NE daylight
14 May - 13:50:44 10° WSW 13:55:16 40° NW 14:00:12 10° NNE daylight
14 May - 20:47:08 10° NNW 20:52:04 29° NE 20:57:00 10° ESE daylight
14 May - 22:28:29 10° NW 22:34:04 54° WSW 22:39:39 10° S daylight
15 May - 11:18:05 10° ESE 11:19:16 11° E 11:20:29 10° E daylight
15 May - 12:55:13 10° SSW 12:59:59 86° WNW 13:05:13 10° NNE daylight
15 May - 14:39:29 10° WNW 14:42:34 16° NW 14:45:47 10° N daylight
15 May - 19:52:46 10° N 19:56:19 17° NE 19:59:56 10° ENE daylight
15 May - 21:33:14 10° NNW 21:38:59 75° ENE 21:44:45 10° SE daylight
15 May - 23:16:25 10° WNW 23:20:05 17° WSW 23:23:43 10° SW daylight
16 May - 12:00:35 10° S 12:05:00 41° ESE 12:09:49 10° NE daylight
16 May - 13:42:35 10° WSW 13:46:50 29° NW 13:51:24 10° NNE daylight
16 May - 20:38:18 10° NNW 20:43:39 39° NE 20:49:01 10° ESE daylight
16 May - 22:20:07 10° NW 22:25:21 37° WSW 22:30:33 10° S daylight
17 May - 11:07:10 10° SE 11:10:19 18° ESE 11:13:38 10° ENE daylight
17 May - 12:46:40 10° SW 12:51:24 58° NW 12:56:35 10° NNE daylight
17 May - 14:32:19 10° WNW 14:34:21 12° NNW 14:36:27 10° N daylight
17 May - 19:43:42 10° N 19:48:03 22° NE 19:52:27 10° E daylight
17 May - 21:24:38 10° NNW 21:30:24 77° WSW 21:36:07 10° SSE daylight
17 May - 23:09:36 10° W 23:11:11 11° W 23:12:43 10° WSW daylight
18 May - 11:51:34 10° SSW 11:56:16 64° ESE 12:01:25 10° NE daylight
18 May - 13:34:42 10° W 13:38:29 21° NW 13:42:30 10° N daylight
18 May - 18:49:39 10° N 18:52:11 13° NE 18:54:45 10° ENE daylight
18 May - 20:29:33 10° NNW 20:35:11 54° NE 20:40:49 10° SE daylight
18 May - 22:11:57 10° NW 22:16:34 25° WSW 22:21:09 10° SSW daylight
19 May - 10:57:25 10° SSE 11:01:26 27° ESE 11:05:43 10° NE daylight
19 May - 12:38:18 10° WSW 12:42:53 40° NW 12:47:53 10° NNE daylight
19 May - 19:34:46 10° NNW 19:39:43 29° NE 19:44:41 10° ESE daylight
19 May - 21:16:08 10° NW 21:21:43 53° WSW 21:27:16 10° S daylight
20 May - 10:05:21 10° ESE 10:06:51 11° E 10:08:24 10° E daylight
20 May - 11:42:47 10° SSW 11:47:36 85° WNW 11:52:53 10° NNE daylight
20 May - 13:27:05 10° WNW 13:30:12 16° NW 13:33:27 10° N daylight
20 May - 18:40:21 10° N 18:43:59 17° NE 18:47:38 10° ENE daylight
20 May - 20:20:52 10° NNW 20:26:38 77° ENE 20:32:23 10° SE daylight
20 May - 22:04:08 10° WNW 22:07:42 17° WSW 22:11:15 10° SW daylight
21 May - 10:48:07 10° S 10:52:36 42° ESE 10:57:30 10° NE daylight
21 May - 12:30:11 10° WSW 12:34:28 28° NW 12:39:04 10° NNE daylight
21 May - 19:25:56 10° NNW 19:31:18 39° NE 19:36:40 10° ESE daylight
21 May - 21:07:46 10° NW 21:13:00 36° WSW 21:18:09 10° S daylight
